Weather History for Estherville, IA

Change the Weather History Date:

Wednesday, February 6, 2013

  Actual Average Record
Temperature  
Mean Temperature 27 °F 18 °F  
Max Temperature 43 °F 27 °F 50 °F (1963)
Min Temperature 11 °F 9 °F -15 °F (1982)
Degree Days  
Heating Degree Days 38 47  
Month to date heating degree days 281 286  
Since 1 July heating degree days 4675 4957  
Cooling Degree Days 0 0  
Month to date cooling degree days 0 0  
Year to date cooling degree days 0 0  
Moisture  
Dew Point 24 °F    
Average Humidity 79    
Maximum Humidity 92    
Minimum Humidity 65    
Precipitation  
Precipitation 0.00 in 0.01 in 0.15 in (1951)
Month to date precipitation T 0.07  
Sea Level Pressure  
Sea Level Pressure 29.99 in    
Wind  
Wind Speed 11 mph (South)    
Max Wind Speed 28 mph    
Max Gust Speed 36 mph    
Visibility 9 miles    
Events      
T = Trace of Precipitation, MM = Missing Value Source: NWS Daily Summary

Daily Weather History Graph

Daily Weather History Graph

Search for Another Location

Airport:

Trip Planner

Search our weather history database for the weather conditions in past years. The results will help you decide how hot, cold, wet, or windy it might be!

Date:

Astronomy

Feb. 06, 2013 Rise Set
Actual Time 7:28 AM CST 5:37 PM CST
Civil Twilight 6:58 AM CST 6:07 PM CST
Nautical Twilight 6:25 AM CST 6:41 PM CST
Astronomical Twilight 5:51 AM CST 7:15 PM CST
Moon 4:16 AM CST (2/6) 1:53 PM CST (2/6)
Length of Visible Light 11h 09m
Length of Day
10h 09m
Waning Crescent, 17% of the Moon is Illuminated
Feb 6
Waning Crescent
Feb 10
New
Feb 17
First Quarter
Feb 25
Full
Mar 4
Last Quarter

Hourly Weather History & Observations

Time (CST) Temp. Windchill Dew Point Humidity Pressure Visibility Wind Dir Wind Speed Gust Speed Precip Events Conditions
12:52 AM 12.9 °F 6.9 °F 10.0 °F 88% 30.10 in 10.0 mi SE 3.5 mph - N/A   Clear
1:52 AM 10.9 °F 0.2 °F 9.0 °F 92% 30.10 in 10.0 mi SSE 6.9 mph - N/A   Clear
2:52 AM 12.9 °F -0.2 °F 10.0 °F 88% 30.12 in 10.0 mi South 10.4 mph - N/A   Clear
3:52 AM 15.1 °F 4.2 °F 12.0 °F 88% 30.09 in 9.0 mi South 8.1 mph - N/A   Overcast
4:52 AM 17.1 °F 5.8 °F 12.9 °F 84% 30.10 in 9.0 mi South 9.2 mph - N/A   Overcast
5:52 AM 18.0 °F 8.7 °F 14.0 °F 84% 30.09 in 10.0 mi SSE 6.9 mph - N/A   Overcast
7:52 AM 19.9 °F 7.3 °F 16.0 °F 85% 30.06 in 8.0 mi SSE 12.7 mph - N/A   Scattered Clouds
8:52 AM 23.0 °F 9.6 °F 19.0 °F 85% 30.03 in 7.0 mi SSE 16.1 mph - N/A   Partly Cloudy
9:52 AM 28.0 °F 14.9 °F 21.9 °F 78% 30.02 in 8.0 mi SSE 19.6 mph - N/A   Partly Cloudy
10:52 AM 34.0 °F 22.4 °F 26.1 °F 73% 30.00 in 8.0 mi SSE 20.7 mph 26.5 mph N/A   Clear
11:52 AM 36.0 °F 23.9 °F 28.0 °F 73% 29.96 in 9.0 mi South 25.3 mph 29.9 mph N/A   Clear
12:52 PM 37.9 °F 27.6 °F 30.0 °F 73% 29.91 in 8.0 mi South 20.7 mph - N/A   Clear
1:52 PM 41.0 °F 31.1 °F 30.9 °F 67% 29.88 in 10.0 mi South 23.0 mph 31.1 mph N/A   Clear
2:52 PM 42.1 °F 36.1 °F 32.0 °F 67% 29.88 in 10.0 mi SSW 10.4 mph - N/A   Partly Cloudy
3:52 PM 43.0 °F 36.8 °F 32.0 °F 65% 29.89 in 10.0 mi SW 11.5 mph - N/A   Clear
4:52 PM 41.0 °F 37.1 °F 33.1 °F 73% 29.89 in 10.0 mi South 5.8 mph - N/A   Clear
5:52 PM 36.0 °F 32.1 °F 30.9 °F 82% 29.91 in 10.0 mi South 4.6 mph - N/A   Scattered Clouds
6:52 PM 35.1 °F 30.1 °F 30.9 °F 85% 29.92 in 10.0 mi South 5.8 mph - N/A   Clear
7:52 PM 37.0 °F 31.0 °F 32.0 °F 82% 29.94 in 10.0 mi South 8.1 mph - N/A   Clear
8:52 PM 35.1 °F 30.1 °F 30.9 °F 85% 29.93 in 10.0 mi South 5.8 mph - N/A   Clear
9:52 PM 34.0 °F 28.0 °F 30.9 °F 89% 29.94 in 9.0 mi South 6.9 mph - N/A   Clear
10:52 PM 33.1 °F - 30.9 °F 92% 29.94 in 8.0 mi Calm Calm - N/A   Clear